This is the latest recevied weather packets stored in our database for station/object HB9UQS-13. If no packets are shown the sender has not sent any weather packets the latest 10 day(s).
| Time | Temp. | Humidity | Pressure | Rain* | Wind** | Luminosity | Snow |
|---|---|---|---|---|---|---|---|
| 1777529621 | 6.11° C | 56% | 934.6 hPa | 0 mm | - | 0 W/m² | - |
| 1777527821 | 5.56° C | 57% | 934.5 hPa | 0 mm | - | 0 W/m² | - |
| 1777526021 | 5.56° C | 57% | 934.3 hPa | 0 mm | - | 0 W/m² | - |
| 1777524221 | 5° C | 57% | 934.3 hPa | 0 mm | - | 0 W/m² | - |
| 1777522421 | 5.56° C | 56% | 934 hPa | 0 mm | - | 0 W/m² | - |
| 1777520621 | 5.56° C | 55% | 933.8 hPa | 0 mm | - | 0 W/m² | - |
| 1777518821 | 6.11° C | 53% | 933.7 hPa | 0 mm | - | 0 W/m² | - |
| 1777517021 | 6.67° C | 53% | 933.8 hPa | 0 mm | - | 0 W/m² | - |
| 1777515221 | 6.67° C | 56% | 933.7 hPa | 0 mm | - | 0 W/m² | - |
| 1777513421 | 7.22° C | 55% | 933.5 hPa | 0 mm | - | 0 W/m² | - |
| 1777511621 | 7.78° C | 53% | 933.5 hPa | 0 mm | - | 0 W/m² | - |
| 1777509821 | 7.78° C | 55% | 933.5 hPa | 0 mm | - | 0 W/m² | - |
| 1777508021 | 8.33° C | 53% | 933.2 hPa | 0 mm | - | 0 W/m² | - |
| 1777506221 | 8.33° C | 54% | 933.2 hPa | 0 mm | - | 0 W/m² | - |
| 1777504421 | 9.44° C | 52% | 933 hPa | 0 mm | - | 0 W/m² | - |
| 1777502621 | 10° C | 51% | 932.9 hPa | 0 mm | - | 0 W/m² | - |
| 1777500821 | 10.56° C | 48% | 932.8 hPa | 0 mm | - | 0 W/m² | - |
| 1777499021 | 11.11° C | 46% | 933 hPa | 0 mm | - | 0 W/m² | - |
| 1777497221 | 11.11° C | 47% | 933 hPa | 0 mm | - | 0 W/m² | - |
| 1777495421 | 11.67° C | 47% | 933.1 hPa | 0 mm | - | 0 W/m² | - |
| 1777493621 | 12.22° C | 48% | 932.9 hPa | 0 mm | - | 0 W/m² | - |
| 1777491821 | 12.22° C | 50% | 932.7 hPa | 0 mm | - | 0 W/m² | - |
| 1777490021 | 12.78° C | 51% | 932.5 hPa | 0 mm | - | 0 W/m² | - |
| 1777488221 | 13.33° C | 55% | 932.2 hPa | 0 mm | - | 0 W/m² | - |
| 1777486421 | 13.89° C | 56% | 931.9 hPa | 0 mm | - | 0 W/m² | - |
* Rain latest hour (hover to see other rain measurements)
** Current wind speed in m/s (hover to see current wind gust speed)